Theta_e
317 319 320 322 325 327 329 330 331 332 332 333 334 333 336 340 332 331 342 346 343 343 342 340 341 341 341 342 342 342 341 340 340 340 340 341 342 344 345 347 349 349 350 351 350 351 351 349 349 348 347 346 345 345 345 345 345 345 345 346 346 347 347 347 347 347 348 348 348 348 344 339 336 336 335 335 335 334 334 333 333 333 332 332 333 334 335
319 321 323 326 328 328 328 331 333 334 335 335 336 335 337 340 338 338 344 345 344 343 341 340 342 341 341 341 340 341 340 339 339 339 340 340 341 342 342 343 346 348 349 349 349 350 351 350 350 350 349 348 347 347 347 346 347 347 346 347 347 347 348 349 348 348 348 348 348 349 349 347 344 342 340 339 338 337 336 335 334 333 333 332 332 332 333
318 319 323 324 325 327 326 327 330 333 336 338 338 338 339 341 342 342 343 345 343 341 340 341 341 340 340 339 339 339 339 338 339 339 339 340 339 339 340 340 342 344 347 348 348 349 350 350 350 350 351 351 350 349 349 349 349 348 347 348 348 347 346 346 347 349 349 350 350 350 350 350 349 349 348 347 346 344 343 342 341 339 336 334 334 334 334
318 318 321 321 322 325 326 326 327 327 332 337 338 339 340 340 343 343 342 343 342 340 340 341 340 339 339 339 338 338 338 338 338 338 338 338 338 338 339 339 339 341 345 346 347 348 347 348 348 348 349 350 350 350 350 351 351 350 350 351 350 349 348 347 347 350 352 352 352 352 352 352 351 351 351 351 351 349 349 349 349 347 344 340 338 338 338
318 317 321 322 322 323 324 327 328 326 330 337 338 338 340 340 342 342 341 341 341 339 339 339 338 338 339 338 338 337 337 337 337 338 337 337 337 336 337 338 338 339 341 342 343 344 344 345 345 345 346 348 348 348 348 350 351 352 352 351 350 351 351 351 350 351 352 352 352 353 353 353 352 352 351 351 351 352 352 352 352 353 350 347 344 343 342
318 320 323 323 322 323 326 329 328 324 327 335 338 338 337 337 337 338 339 339 338 337 338 338 337 338 338 337 336 336 336 336 336 337 336 336 336 334 334 334 334 334 335 337 338 339 340 342 342 343 344 344 345 345 346 347 348 349 349 349 349 349 350 350 350 350 350 350 350 351 351 351 351 351 351 352 352 353 353 353 353 354 353 352 350 348 348
319 323 325 322 321 325 329 329 327 326 329 333 335 335 334 333 335 337 338 337 337 337 338 337 336 336 336 335 335 334 335 335 336 336 335 335 335 333 332 331 328 327 328 329 332 334 334 335 336 338 339 340 341 342 343 344 345 345 346 346 347 347 347 347 348 348 348 349 349 349 350 350 350 350 350 351 351 351 351 352 352 352 353 353 352 351 351
319 322 323 321 323 327 328 326 323 326 331 334 334 335 334 332 335 338 337 336 338 338 338 336 335 334 333 333 332 333 334 335 336 336 336 336 335 334 331 327 324 323 321 321 322 324 326 327 328 331 333 335 336 338 340 341 341 342 342 342 342 342 342 343 344 345 345 346 346 347 347 348 348 349 349 349 350 350 350 350 350 351 351 351 351 351 351
321 321 320 323 328 328 325 322 319 320 325 327 330 336 335 331 334 338 336 336 338 337 335 335 334 333 333 333 331 331 333 335 335 336 337 337 336 334 330 326 325 325 323 322 320 319 319 320 321 322 324 325 328 332 334 334 335 336 336 337 337 337 338 340 341 342 342 342 342 343 343 344 346 346 346 346 347 348 349 349 350 351 351 350 351 351 351
324 324 320 321 327 327 324 321 317 317 319 318 323 333 336 332 334 337 337 336 337 336 334 334 334 333 334 334 331 329 331 333 334 335 337 336 335 333 330 328 328 328 327 326 324 322 320 320 321 321 320 319 320 323 325 325 326 327 327 329 331 332 334 336 337 337 338 338 338 339 339 340 341 341 342 342 343 344 345 346 347 348 348 349 349 350 350
323 324 321 319 321 323 324 322 319 318 317 319 324 330 332 333 334 336 337 336 335 335 335 335 335 335 335 335 332 329 330 332 333 333 333 332 331 329 328 328 327 326 326 325 324 322 320 320 322 323 322 320 319 320 320 320 320 322 322 324 325 325 328 331 332 333 332 330 329 330 330 331 333 335 336 337 339 340 342 343 344 344 345 346 346 347 347
322 322 320 321 321 322 323 322 321 319 318 322 327 324 326 332 335 335 337 336 334 335 335 335 335 336 337 336 333 329 330 332 331 331 330 329 328 327 326 325 323 322 320 319 318 317 315 316 318 318 317 317 318 319 321 320 321 322 322 322 323 323 323 324 325 327 328 325 323 322 323 325 328 331 333 335 337 340 342 342 342 343 344 344 344 345 345
322 320 319 321 321 321 322 321 320 319 320 325 326 321 324 332 334 334 335 335 334 334 335 335 335 334 333 333 331 330 330 330 330 330 329 328 327 325 323 320 318 317 316 314 312 312 311 311 312 312 311 312 312 315 317 318 319 320 320 322 324 325 325 323 322 322 324 325 325 325 326 329 333 335 336 336 337 339 340 340 339 340 340 341 341 341 341
320 320 320 320 319 320 321 321 319 319 324 328 324 320 324 330 333 333 334 333 334 334 334 334 334 332 330 330 331 329 328 328 328 328 327 326 324 322 320 319 318 316 314 313 311 310 309 309 309 309 309 310 309 310 311 312 313 314 315 318 320 321 322 323 322 321 321 322 325 327 330 332 335 336 336 336 337 337 337 336 335 333 333 333 333 333 334
319 320 319 318 320 321 320 322 321 321 324 325 322 321 325 330 332 333 333 333 333 334 333 333 331 329 329 330 331 329 327 327 326 326 326 324 322 320 320 319 318 316 314 312 311 310 309 308 308 308 308 308 309 308 308 309 309 309 310 312 313 313 313 315 317 320 321 320 321 325 329 331 332 333 333 333 333 332 330 328 326 323 322 323 324 325 328
319 320 319 320 322 321 319 321 323 322 321 320 320 323 328 330 331 332 332 332 332 333 332 331 329 328 328 329 330 329 327 327 326 325 325 324 322 321 320 319 318 316 314 312 311 310 309 308 308 308 307 307 308 307 307 308 308 308 308 308 308 309 309 310 311 314 318 319 319 321 324 327 329 330 330 329 329 327 326 324 321 318 316 317 318 321 324
319 320 321 321 322 320 318 319 320 319 319 319 319 322 327 329 330 331 332 331 331 332 331 329 328 328 327 328 329 329 328 327 326 325 324 324 322 321 320 319 318 315 313 312 311 310 309 308 308 308 307 307 307 307 307 307 307 307 307 307 307 307 307 308 308 309 312 314 316 317 319 322 325 327 327 326 326 325 324 323 322 320 318 316 316 317 319
319 320 321 321 322 321 318 318 318 317 319 320 320 321 326 329 329 330 331 331 330 331 330 328 327 326 326 327 328 328 327 327 325 324 324 323 322 320 319 319 317 315 313 312 311 310 309 308 308 308 307 307 307 307 306 307 307 306 306 306 307 307 306 306 307 307 308 308 310 312 314 315 318 320 321 322 322 321 320 320 320 320 318 317 315 315 315
320 321 323 322 321 320 318 318 318 318 318 321 322 322 325 328 328 329 330 330 330 330 329 328 326 325 325 325 325 326 326 326 325 324 323 323 321 320 319 319 317 315 313 312 311 310 309 308 308 308 307 307 307 306 306 306 306 306 306 306 306 306 306 306 306 306 306 306 307 308 311 313 315 317 317 318 319 320 319 318 317 317 316 316 315 314 314
321 322 322 321 320 319 318 318 318 318 318 321 322 323 325 327 329 329 329 330 330 329 329 328 326 325 325 324 324 325 325 325 324 323 323 322 321 320 319 318 316 314 313 312 311 310 309 309 308 308 308 308 307 306 306 306 305 305 305 306 306 306 306 306 306 306 306 306 306 306 308 312 316 318 318 318 317 318 318 318 317 317 316 316 315 315 314
322 322 322 322 321 321 319 318 318 318 317 319 321 323 324 326 328 328 327 328 329 329 329 328 327 326 326 325 325 325 324 324 323 323 322 321 320 319 319 318 316 314 313 312 312 311 310 309 309 309 309 309 308 307 306 305 304 304 304 304 304 304 304 305 305 305 305 305 305 305 306 307 310 313 316 317 318 318 317 317 317 316 315 315 316 316 316
321 322 323 322 323 323 321 319 318 318 317 317 319 321 323 325 327 327 326 327 327 327 328 327 326 326 327 325 325 324 324 323 322 322 322 321 320 319 319 318 316 314 314 313 312 312 311 310 310 310 310 309 309 308 306 305 304 304 304 304 304 304 304 304 304 304 305 305 305 305 306 307 307 309 312 315 317 319 320 319 318 317 315 315 316 317 317
321 321 321 320 322 323 321 318 318 318 318 318 318 319 320 322 324 326 326 327 326 326 327 326 325 326 327 326 325 324 323 322 322 321 321 320 319 319 319 317 316 314 313 313 313 312 311 311 311 311 310 310 309 308 307 305 304 303 304 304 305 305 305 305 305 305 306 306 306 306 307 307 308 310 314 317 319 319 320 321 320 319 318 317 316 316 317
322 320 319 320 321 321 319 318 319 319 318 318 318 318 318 319 320 322 324 325 326 326 326 326 325 324 325 325 325 324 323 322 322 321 320 320 320 320 319 317 316 314 314 314 313 312 312 312 312 312 311 311 311 310 309 307 304 303 304 304 305 305 305 305 306 306 306 306 307 307 308 309 310 311 314 317 319 320 320 321 321 320 320 319 319 317 316
321 320 320 320 320 320 319 319 319 319 319 319 318 318 318 317 318 318 319 321 323 324 324 324 324 323 323 324 324 324 323 322 321 321 320 320 319 319 318 316 315 315 314 314 313 313 312 312 312 312 312 312 312 312 311 309 307 304 304 304 305 305 306 306 306 307 307 307 307 308 309 310 312 314 314 315 317 318 319 320 320 320 320 320 318 317 316
321 320 319 320 319 319 319 319 319 319 319 319 319 319 318 318 318 317 318 318 319 320 321 322 322 322 322 322 323 323 323 322 321 321 320 320 320 319 317 316 315 315 315 314 314 313 313 312 313 312 312 312 312 312 311 310 308 306 304 304 304 305 305 306 306 307 307 308 308 308 308 309 311 314 315 316 317 317 317 318 318 318 318 318 317 316 316
319 319 319 320 320 319 319 319 319 319 319 319 319 319 319 318 318 318 318 317 317 317 318 319 320 321 321 321 321 321 321 321 321 320 320 320 319 318 317 316 315 315 315 314 314 313 313 313 313 313 312 312 312 312 311 310 309 307 305 304 305 305 305 306 306 307 307 307 307 308 308 308 309 311 313 315 316 317 317 317 317 317 318 318 317 317 317
319 319 319 320 320 320 319 319 319 319 319 319 318 318 318 318 318 318 319 318 318 318 317 317 318 319 320 320 320 320 320 320 320 320 320 320 319 318 317 316 315 315 315 314 314 313 313 313 313 313 313 312 312 312 311 311 309 307 305 304 304 305 305 306 306 306 307 307 307 307 307 307 308 309 311 313 315 316 316 316 316 317 317 317 317 317 317
318 318 318 318 319 318 318 319 319 318 318 318 318 317 317 317 317 317 318 318 318 318 318 318 317 317 318 318 318 319 319 320 320 320 320 319 318 317 316 316 315 315 315 314 314 314 313 313 313 313 313 312 312 312 311 311 310 307 305 303 303 304 304 304 305 305 306 306 306 306 307 307 307 307 309 312 313 315 315 315 315 316 316 315 315 316 316
317 317 318 318 318 318 318 318 317 317 317 317 317 317 316 316 316 316 316 316 317 317 317 318 318 317 317 317 318 318 318 318 319 319 319 319 318 317 316 316 315 315 314 314 314 313 313 313 313 313 312 312 312 312 311 311 309 307 305 303 303 303 303 303 303 303 303 303 304 304 304 304 305 306 308 310 312 313 314 315 314 314 314 314 314 314 315
317 316 316 316 316 316 316 316 316 316 316 316 316 316 316 316 315 315 315 315 315 316 316 317 317 318 317 317 317 317 318 317 318 318 318 318 317 317 316 316 316 315 315 315 314 314 313 312 312 312 312 312 312 311 311 310 308 307 305 303 302 302 302 301 301 301 301 301 301 301 301 302 302 302 304 308 310 311 312 313 312 312 312 312 312 312 313
316 316 315 315 315 314 314 314 314 314 314 314 314 314 314 315 315 314 314 314 314 314 314 314 315 316 317 317 318 318 318 318 318 318 317 317 317 317 316 316 316 315 316 315 315 314 313 312 312 312 312 311 311 311 310 309 308 306 304 303 302 302 301 301 301 301 301 301 301 301 301 301 300 301 304 307 309 310 311 311 310 310 310 310 310 310 310
316 315 315 314 313 313 313 313 313 313 313 313 313 313 313 313 313 313 312 312 313 313 312 312 312 312 313 314 316 317 317 317 318 318 318 317 317 317 316 316 316 315 315 315 314 313 313 312 312 311 311 311 310 310 309 308 306 305 303 302 302 301 301 301 301 301 301 301 301 301 301 301 302 304 307 308 309 309 309 309 309 308 308 308 308 309 308
314 314 313 312 312 311 311 311 311 311 311 311 311 312 312 312 311 311 311 310 310 311 312 312 311 311 310 310 311 313 315 316 317 318 318 318 317 317 316 315 315 315 315 314 313 313 312 312 311 311 310 310 309 308 307 306 305 304 303 302 301 301 301 301 301 301 301 301 301 301 302 303 305 306 307 308 308 307 307 307 307 307 307 307 307 307 307
313 312 311 310 310 309 309 309 309 309 309 309 309 309 310 310 309 309 309 309 309 310 311 311 312 312 311 310 309 309 310 312 315 316 317 317 317 316 315 315 315 314 314 313 313 312 312 311 311 310 309 308 308 307 306 305 304 303 302 301 301 301 301 300 301 301 301 302 303 304 305 305 306 306 306 306 306 306 306 306 306 306 306 306 306 306 306
312 311 310 309 308 307 307 307 306 306 306 306 306 307 307 307 307 307 308 308 308 309 309 309 310 311 311 312 311 310 309 309 311 313 316 317 317 316 315 314 314 314 314 313 312 312 311 310 310 309 308 307 306 305 304 303 302 302 301 301 300 301 300 300 300 300 300 302 304 305 305 305 305 305 305 305 305 305 305 304 305 305 304 304 305 305 305
309 308 307 305 305 304 304 304 304 304 304 304 304 304 304 304 304 305 305 306 306 307 307 307 308 308 309 310 311 312 311 309 309 310 313 316 316 316 315 314 314 314 313 313 312 311 311 310 309 308 307 306 306 305 304 303 302 301 300 300 300 300 300 300 300 300 300 300 302 303 304 304 304 304 304 304 304 304 304 303 303 303 303 303 303 304 304
305 304 304 304 304 304 304 304 304 305 305 304 304 304 304 304 304 304 304 304 304 304 305 305 306 306 307 308 309 309 310 310 309 309 310 313 316 316 315 314 314 313 313 313 312 311 311 310 309 308 307 306 305 304 303 302 301 300 300 300 300 300 300 300 299 299 299 299 300 301 302 302 303 303 302 302 302 302 302 302 302 302 302 302 302 303 303
303 303 304 304 304 304 304 305 305 305 305 305 306 306 305 305 305 305 304 304 304 304 304 304 305 305 306 307 307 307 308 309 309 309 309 311 314 316 315 314 313 313 313 312 312 311 310 310 309 308 307 306 304 303 302 301 300 300 299 299 299 299 299 299 299 299 299 299 299 299 300 300 301 301 301 301 301 301 301 301 301 301 302 302 302 302 302
304 304 304 304 304 304 305 305 305 306 306 306 306 306 306 306 305 305 305 305 305 304 304 304 305 305 305 305 306 307 307 307 307 307 307 308 312 315 315 313 312 313 312 312 311 310 310 310 308 307 306 305 304 302 301 300 299 299 299 299 299 299 299 298 298 298 298 298 298 299 299 299 299 299 300 300 300 300 300 300 300 300 300 301 301 301 301
304 304 304 304 305 305 305 306 306 306 306 306 306 306 306 306 306 305 305 305 305 305 305 304 304 305 305 305 306 306 306 306 306 305 305 306 310 314 314 313 312 312 311 310 310 310 310 309 308 306 305 304 302 301 300 299 299 299 299 299 299 298 298 298 298 298 298 298 298 298 298 298 298 298 299 299 299 299 299 299 298 298 299 299 299 299 300
304 304 305 305 306 306 306 306 306 306 306 306 306 306 306 306 306 306 306 305 305 305 305 304 304 304 305 305 305 305 306 306 306 306 306 307 311 313 314 314 313 312 310 310 310 310 309 307 306 305 304 303 302 300 299 299 299 299 299 299 298 298 298 298 298 298 297 297 297 297 297 298 298 298 298 298 298 297 297 298 298 298 297 298 298 298 298
305 305 305 306 306 306 306 306 306 306 306 306 305 306 306 306 306 306 306 306 305 305 305 304 304 304 304 305 305 305 306 307 308 308 308 310 312 313 314 314 313 311 310 309 309 308 307 306 305 304 303 302 301 300 299 299 299 299 299 298 298 298 298 298 298 297 297 297 297 297 297 297 297 297 297 297 297 297 297 296 297 297 297 297 297 297 297
305 306 306 306 306 306 306 306 306 306 306 306 306 306 306 306 306 306 306 306 306 306 305 305 305 305 305 305 306 306 306 307 308 309 310 312 313 313 312 312 312 310 309 309 309 307 306 305 304 303 302 301 300 300 299 299 299 299 299 298 298 298 298 298 297 297 297 297 297 297 297 297 297 296 296 296 296 296 296 296 296 296 296 296 296 296 296
306 306 306 306 305 306 306 306 306 306 307 306 306 305 306 306 306 306 306 306 306 306 305 305 305 305 305 306 306 306 306 307 308 308 310 312 313 312 312 311 311 310 309 309 308 306 305 304 303 303 302 301 300 300 300 299 299 299 299 298 298 298 298 297 297 297 296 296 297 297 296 296 296 296 296 296 296 295 295 295 295 295 295 295 295 295 295
306 306 306 305 306 306 306 306 306 307 307 307 306 306 306 306 306 306 306 306 306 306 305 305 305 305 305 305 306 306 307 307 308 309 310 311 312 312 312 311 310 309 309 309 307 305 304 303 303 303 302 300 300 300 300 299 299 299 299 299 298 298 298 298 297 297 297 296 296 297 296 296 296 296 296 296 296 296 295 295 295 295 295 295 295 295 295
306 306 306 306 306 306 307 306 306 307 307 307 307 307 306 306 306 306 306 306 306 306 305 305 305 305 305 305 305 306 307 308 309 310 311 311 312 312 311 310 309 309 309 308 306 305 304 303 303 302 301 300 300 300 300 299 299 299 299 299 299 298 298 298 298 298 297 297 297 297 296 296 296 296 296 296 296 296 296 296 295 295 295 295 295 295 295
306 306 306 306 306 307 306 306 306 306 306 306 306 306 307 307 306 306 306 306 305 305 305 305 305 305 305 305 306 306 307 308 309 310 311 311 311 310 310 309 309 308 308 306 305 304 303 302 301 301 300 300 300 300 300 300 300 300 299 299 299 298 298 298 298 298 298 298 297 297 297 297 297 297 297 297 297 297 297 296 296 296 296 296 295 295 295
306 306 306 306 306 306 306 306 306 306 305 305 305 306 307 307 306 306 306 306 305 305 305 305 305 305 305 306 306 307 308 309 310 310 310 310 310 309 308 308 308 307 306 305 304 302 301 301 300 300 300 300 300 300 300 300 300 300 299 299 299 298 298 298 298 299 299 299 298 298 297 297 297 297 297 297 297 297 297 297 297 297 297 296 296 296 296
306 306 306 306 306 306 306 306 305 305 305 305 306 306 307 307 307 307 306 306 305 305 305 306 307 307 307 307 308 308 309 309 310 310 309 308 308 307 307 307 306 305 304 303 302 301 301 300 300 300 300 300 300 300 299 299 299 300 300 299 299 298 298 298 298 299 299 299 299 299 298 298 298 298 297 297 297 298 298 298 298 297 297 297 297 296 296
306 305 306 306 306 305 304 304 304 305 305 306 306 307 307 307 307 307 307 307 307 307 307 307 307 308 308 308 309 309 309 309 309 308 307 306 306 306 306 306 305 304 303 303 302 301 301 300 300 299 299 299 299 299 299 299 299 300 300 300 299 299 299 299 299 299 299 299 299 299 299 298 298 298 298 297 297 297 298 298 297 297 297 297 297 297 296
306 305 306 306 306 305 305 304 304 304 305 305 306 306 306 306 307 307 307 307 307 307 306 306 306 306 307 307 307 308 308 307 306 306 305 305 305 305 306 305 304 303 303 302 301 301 301 300 299 299 299 299 299 299 299 299 300 300 300 300 300 300 300 299 299 299 299 299 299 299 299 298 298 298 298 298 298 298 297 297 297 297 297 297 297 296 296
Wind_Speed
5 3 3 3 3 3 4 4 4 4 3 3 4 3 3 6 4 3 9 14 11 12 15 13 12 12 11 11 10 10 10 10 9 9 9 8 6 4 7 15 24 27 23 19 18 17 16 16 15 16 19 21 22 23 24 25 26 25 24 23 22 21 20 20 19 18 17 17 16 15 15 17 18 18 18 18 18 19 18 18 18 17 17 17 17 17 16
9 8 7 7 6 7 9 9 7 5 3 2 3 3 4 3 3 2 12 14 8 10 15 14 14 15 14 13 11 10 11 10 11 12 11 11 10 10 9 11 17 23 22 20 19 17 16 16 15 14 15 17 19 21 22 23 24 23 22 21 20 19 18 18 18 18 18 18 17 17 17 17 16 17 17 17 18 18 19 18 18 18 18 18 18 18 18
8 9 8 7 6 8 11 12 10 8 5 4 5 6 5 3 4 7 13 13 8 9 14 16 16 16 16 15 13 12 11 11 13 14 12 12 14 16 17 19 20 22 22 20 19 17 15 15 15 14 14 14 15 18 19 20 21 21 20 19 18 17 17 18 18 18 19 18 18 18 19 19 18 17 16 16 17 18 18 18 18 18 19 19 19 19 19
5 7 5 5 3 4 9 11 12 10 4 2 3 3 1 2 7 12 11 8 7 11 16 18 18 18 17 16 14 13 12 13 15 14 13 13 15 19 20 22 24 25 23 21 19 17 15 14 13 13 15 15 15 15 17 18 18 19 19 18 17 17 19 21 20 19 18 18 18 19 20 20 20 19 18 18 18 19 19 19 19 19 19 19 19 19 18
3 4 3 2 0 3 4 8 11 9 4 0 2 3 3 3 8 9 5 4 8 14 16 16 16 17 17 15 15 14 14 15 15 15 15 14 15 19 21 20 22 25 25 24 22 19 17 15 14 13 13 14 14 13 14 16 16 17 17 16 15 17 19 19 17 16 16 16 16 17 18 20 20 20 20 19 18 20 21 21 20 20 20 20 19 18 18
1 4 3 1 2 2 2 7 8 6 4 0 3 5 5 4 3 4 4 8 13 16 16 15 15 15 16 15 14 14 16 18 17 16 15 15 16 20 22 21 21 23 24 25 24 23 20 18 16 15 14 14 15 14 14 14 13 13 13 12 12 14 15 14 12 11 11 12 13 13 15 15 16 17 18 17 17 19 20 19 18 19 20 20 20 19 17
1 3 3 1 2 3 2 5 6 2 1 4 8 8 7 5 3 8 10 13 17 18 19 19 17 16 15 14 13 14 17 20 20 18 16 17 21 24 25 24 24 24 24 24 24 24 23 21 19 17 15 14 14 14 13 13 12 11 11 11 11 11 11 11 11 11 10 9 9 9 10 10 10 11 12 12 13 14 15 16 14 15 17 18 19 19 19
1 1 1 1 2 2 1 2 6 4 2 5 6 6 6 5 2 9 13 15 19 22 22 20 18 18 17 15 13 15 18 20 21 21 20 21 25 26 25 25 25 25 25 25 25 24 24 23 22 20 17 15 14 14 13 13 12 11 10 9 8 8 8 8 9 9 8 7 6 6 6 6 5 5 5 7 8 9 11 12 12 13 15 16 17 18 18
1 2 3 1 0 1 1 1 3 3 1 2 2 0 3 3 1 9 15 16 19 23 22 21 21 20 17 12 9 13 19 20 20 22 23 24 25 25 24 24 24 24 23 23 23 22 22 22 22 20 18 16 16 15 15 13 12 12 12 12 12 10 10 10 9 8 6 5 4 3 3 3 4 3 2 3 4 5 7 8 8 10 12 13 14 14 15
0 2 4 2 1 2 2 1 2 2 3 5 5 2 2 1 3 12 18 18 21 24 23 23 23 19 14 9 6 10 17 21 21 23 25 25 24 23 23 23 23 22 21 20 20 19 19 19 18 17 15 14 14 14 14 13 12 11 13 15 15 13 12 11 10 9 8 6 5 4 4 2 1 2 2 2 1 2 3 5 6 7 8 9 9 10 11
0 1 3 3 2 2 1 1 3 5 3 3 3 2 2 2 7 15 19 20 22 24 25 26 23 15 8 5 7 12 17 21 22 24 24 24 23 22 22 21 20 19 18 17 16 15 16 17 15 12 11 9 10 12 12 10 9 10 12 14 13 12 11 10 10 9 9 9 9 10 9 8 7 5 4 2 1 0 2 5 5 5 5 5 5 6 7
1 0 1 2 2 2 1 2 7 9 4 2 3 1 2 5 11 15 18 22 23 24 26 25 19 10 6 8 15 20 23 23 22 22 22 22 22 21 19 17 17 16 14 13 12 11 11 13 12 9 8 7 8 9 9 7 7 9 10 11 10 9 9 8 8 8 8 7 8 8 9 8 8 8 7 6 5 3 1 2 2 2 2 1 2 3 4
1 0 1 1 2 2 2 7 13 12 6 3 2 3 2 8 15 15 17 21 23 25 27 22 15 12 13 19 26 28 27 26 24 22 21 20 19 18 17 15 14 13 11 10 10 10 9 9 9 7 7 6 6 7 7 6 6 7 7 8 8 7 6 6 6 6 7 7 6 6 7 7 6 6 5 5 3 2 1 1 2 2 2 1 1 1 2
1 1 1 1 2 2 7 13 13 9 3 2 2 5 2 12 17 16 18 21 23 26 25 20 15 14 16 24 32 32 29 27 26 24 22 21 20 18 15 13 11 10 10 9 9 9 9 8 7 6 5 4 4 5 4 4 4 5 5 5 5 5 4 4 4 4 5 7 7 7 7 7 6 6 5 4 3 2 1 1 2 2 2 2 2 2 2
0 1 1 1 2 3 12 14 8 4 3 1 4 6 3 13 17 17 18 19 22 23 21 18 15 13 17 28 35 33 29 28 26 25 24 22 20 18 16 13 10 8 8 9 8 9 9 8 7 6 4 3 3 3 2 2 2 2 2 3 3 3 3 3 3 4 4 5 6 7 7 7 7 6 6 5 4 3 2 1 1 2 2 2 1 2 2
1 1 2 2 1 5 11 9 3 3 6 5 5 3 5 11 15 17 17 17 19 21 21 21 18 16 24 33 35 32 31 29 26 25 24 22 21 19 16 13 10 7 6 8 8 8 8 7 6 5 4 3 2 2 2 1 1 1 1 1 1 1 2 2 3 4 4 4 5 5 6 6 5 5 5 4 4 3 2 1 0 0 1 1 1 2 2
1 2 2 3 3 6 8 6 4 6 7 6 5 2 6 10 14 17 18 19 22 21 21 20 17 20 29 35 33 32 32 29 27 26 24 22 20 18 15 12 10 7 6 7 7 7 7 6 6 5 4 3 2 1 1 1 2 2 2 2 2 2 2 2 3 3 3 4 4 5 5 5 5 4 4 3 3 3 3 3 3 3 2 2 2 2 3
0 1 3 4 5 8 9 8 8 10 10 8 6 3 6 11 16 19 21 24 26 24 22 20 17 20 27 30 31 32 31 29 28 26 24 22 19 16 14 11 8 7 6 6 6 6 6 6 6 6 6 5 4 3 1 1 2 3 3 3 3 3 4 4 4 3 3 4 4 5 5 5 5 5 5 5 5 5 5 5 5 5 4 4 4 4 4
1 2 4 4 5 11 13 12 12 13 13 12 10 5 5 10 14 19 22 25 26 23 21 19 18 21 26 28 29 31 31 29 28 26 24 22 19 15 12 9 7 6 5 4 5 6 6 6 6 6 6 6 6 5 4 3 1 2 3 3 4 5 5 5 5 5 4 4 4 4 5 5 5 5 5 5 5 5 5 6 5 5 5 4 4 4 4
1 2 2 2 5 11 15 14 14 15 15 14 13 8 5 7 11 15 18 22 24 24 22 21 20 23 28 29 30 31 31 29 28 26 24 22 19 15 12 9 7 5 4 4 4 5 6 6 6 6 6 7 7 7 7 6 4 2 1 3 4 4 5 6 6 5 5 5 4 5 5 6 6 6 6 6 5 5 5 5 5 5 4 4 4 4 4
2 2 1 1 2 8 13 14 14 14 14 13 12 11 7 6 9 12 15 18 22 24 24 23 22 23 26 29 31 31 32 31 28 26 24 22 19 16 12 9 7 4 3 3 4 5 6 6 7 7 7 7 7 8 8 7 6 4 2 1 2 3 4 5 5 6 6 6 6 6 6 7 7 7 6 6 5 5 6 6 6 5 5 5 4 4 4
2 2 1 1 3 4 8 12 13 12 12 10 10 11 9 7 10 14 15 17 19 21 22 21 21 22 25 29 30 30 31 31 29 27 25 23 19 16 13 11 9 7 5 3 3 5 5 6 7 7 8 8 8 8 8 8 7 6 4 2 1 1 2 3 3 4 4 5 5 6 6 5 5 5 5 5 5 6 6 7 7 7 6 6 5 5 5
3 2 4 6 6 6 7 10 12 12 11 9 9 10 9 6 8 12 14 15 16 19 19 19 18 19 22 26 28 30 30 29 29 28 27 25 21 18 15 12 10 9 7 4 2 3 4 5 6 8 10 11 11 10 9 8 8 6 5 4 4 3 3 2 3 3 3 4 4 4 4 4 4 3 3 3 5 6 6 7 7 7 7 7 7 6 6
5 5 7 9 9 9 10 11 12 12 11 10 9 10 9 7 3 3 6 8 10 13 15 16 17 18 19 22 25 28 29 29 29 29 27 25 22 19 16 13 11 9 6 4 1 1 2 3 5 8 9 11 12 12 12 10 9 7 5 4 4 4 5 5 4 4 4 4 4 4 3 3 3 3 4 4 5 6 7 8 8 8 8 8 8 8 7
8 9 10 11 10 10 9 9 9 10 10 9 9 9 9 7 6 5 2 2 4 7 10 12 15 17 19 21 24 25 26 27 29 29 28 26 22 19 17 15 13 9 6 4 2 2 1 1 3 5 7 9 11 12 13 13 11 9 7 5 5 5 5 5 5 5 4 5 4 4 4 4 2 1 2 3 4 6 7 9 9 10 10 10 10 9 9
9 9 8 8 8 7 6 6 7 7 7 7 7 7 7 6 5 5 4 4 3 4 6 10 14 16 19 22 24 25 26 26 28 30 29 27 24 21 18 16 13 10 8 6 5 5 3 2 0 2 4 6 9 11 13 13 12 10 9 7 6 6 5 4 4 4 4 5 5 5 5 5 4 3 2 1 2 3 4 6 7 9 10 10 10 9 8
6 4 4 4 5 5 5 4 4 5 4 4 4 4 3 3 3 3 3 2 2 3 4 7 12 16 19 20 22 24 25 27 30 32 30 27 25 21 19 16 14 12 10 9 8 7 6 4 2 2 3 5 7 9 11 12 12 11 9 8 7 7 6 5 5 4 4 5 5 5 6 6 5 5 4 3 2 2 3 3 4 5 6 7 7 8 9
4 3 2 2 3 4 4 3 3 3 3 3 3 3 3 3 2 2 2 1 1 1 2 4 7 11 15 18 20 22 25 29 32 32 30 28 25 22 19 17 16 15 14 12 11 11 9 7 5 5 5 6 7 8 10 11 12 11 10 8 7 7 7 7 6 6 6 6 6 6 7 6 6 7 7 6 4 3 3 4 5 6 6 7 7 9 10
4 3 2 2 3 3 2 1 1 2 3 4 4 4 4 4 4 3 3 2 2 3 4 5 6 8 10 13 16 21 26 31 34 33 30 28 26 24 21 20 18 17 16 15 14 14 12 10 8 7 7 7 8 9 10 11 11 11 10 8 7 6 7 7 7 7 7 7 8 8 8 8 7 7 7 7 6 5 4 5 6 7 8 9 9 9 10
4 3 2 2 1 1 0 1 2 3 5 6 6 7 7 6 6 5 5 4 3 4 5 7 9 10 11 11 12 15 19 24 28 30 31 30 29 26 24 23 22 21 19 19 19 18 15 13 11 10 8 8 8 8 9 10 11 10 9 8 8 7 7 7 7 7 8 8 9 9 9 9 9 8 7 6 6 5 5 6 7 7 7 8 8 8 8
3 2 2 1 1 2 2 3 4 5 5 6 7 7 8 8 8 7 7 7 7 6 6 7 9 11 13 14 14 14 16 17 19 20 24 28 31 30 28 27 26 24 22 22 22 20 18 16 14 12 10 9 8 8 8 9 10 10 9 9 9 8 7 7 7 7 7 8 9 9 10 10 9 9 8 6 5 5 4 5 6 6 6 6 7 7 7
2 2 2 2 3 3 3 4 4 5 6 6 7 7 8 8 8 9 10 10 10 10 9 9 9 10 12 14 16 17 19 20 20 19 19 23 28 30 31 30 29 27 26 25 23 21 20 18 15 13 11 9 8 7 7 8 9 10 10 9 9 9 8 8 7 7 7 8 8 9 9 9 9 9 6 4 4 4 4 4 5 5 5 5 6 7 8
1 2 2 4 4 4 5 5 6 7 7 8 8 8 8 8 9 10 11 11 12 12 12 11 11 11 11 13 14 16 17 20 22 22 22 22 24 27 30 32 32 31 30 28 24 22 20 18 16 14 12 10 8 7 6 7 8 9 9 10 10 10 10 9 8 7 7 7 7 8 8 8 7 6 3 2 3 4 4 4 5 5 5 6 6 7 9
2 2 2 4 6 7 8 9 10 10 11 11 11 10 10 10 10 11 12 13 14 14 13 13 13 13 12 13 14 15 16 17 19 21 22 23 23 24 26 30 32 33 32 29 25 22 21 19 17 15 13 11 9 7 6 6 7 8 9 9 9 10 10 10 9 8 7 7 7 6 6 5 4 3 2 3 4 4 4 5 5 6 6 7 7 7 9
3 3 5 7 8 10 11 13 14 15 16 17 17 16 16 15 15 15 15 16 17 17 17 17 17 16 15 14 13 14 15 17 18 19 20 21 21 20 21 25 30 33 33 30 26 23 22 20 18 15 13 11 8 6 5 6 6 7 7 7 8 8 9 9 9 9 8 6 5 3 2 2 2 2 3 3 4 4 5 5 6 6 6 7 7 7 8
6 7 9 10 12 13 15 17 18 19 20 21 22 23 23 23 22 21 20 20 20 20 20 20 20 20 20 18 16 15 15 15 16 17 18 18 18 17 18 22 26 31 33 31 27 25 23 20 17 15 13 10 8 6 6 6 6 6 6 5 6 6 7 7 7 7 7 5 2 1 1 2 2 2 3 3 4 4 4 5 5 6 6 7 8 8 8
9 10 12 13 15 16 18 19 20 22 23 25 26 26 27 27 27 26 25 24 24 23 23 22 23 23 23 22 21 19 18 16 15 16 17 17 17 16 17 20 25 30 34 33 30 27 24 21 17 15 12 9 8 7 7 6 5 4 4 4 4 5 5 5 5 6 6 5 4 2 2 2 2 2 3 3 4 4 5 5 5 6 6 7 8 8 8
11 12 13 14 15 17 18 19 20 21 23 25 26 27 28 28 29 29 29 28 27 26 25 24 24 24 24 24 24 24 23 20 17 16 16 18 18 18 18 21 24 29 34 35 34 30 26 22 18 15 12 10 9 9 7 6 5 4 3 3 3 3 4 4 5 5 5 5 5 4 3 2 2 2 3 3 4 4 5 5 6 6 6 7 7 8 8
11 11 13 14 16 18 19 20 21 21 22 24 25 26 27 27 28 28 29 30 29 28 27 26 25 25 25 25 26 26 25 24 21 19 18 18 19 19 20 20 22 26 31 34 34 30 25 21 18 15 13 11 10 9 7 6 4 3 2 2 3 3 4 4 5 5 5 6 6 6 5 5 4 4 3 4 4 4 4 5 5 6 6 6 7 7 8
11 13 15 16 18 20 21 22 23 24 24 24 25 26 26 26 26 27 27 28 27 27 27 27 27 27 26 26 25 26 25 24 23 21 20 20 20 20 21 21 22 26 30 32 31 27 24 21 18 16 14 12 10 9 7 5 4 3 2 2 3 3 4 5 5 6 6 6 7 7 7 7 7 6 4 4 4 4 5 5 6 6 6 6 7 7 8
12 14 16 18 19 21 22 22 22 22 21 22 23 24 24 24 25 26 26 26 25 25 25 26 27 28 28 26 25 25 25 24 23 22 22 21 22 22 22 21 23 27 31 31 29 26 23 20 18 16 14 12 10 8 7 5 4 2 1 2 2 3 4 5 6 6 7 7 7 8 8 8 8 7 5 4 6 7 7 7 7 7 7 7 8 8 9
13 15 17 18 20 21 21 19 18 18 18 17 18 19 20 20 21 23 24 25 25 24 25 25 26 27 28 27 25 25 24 22 21 22 22 23 23 23 23 22 23 28 31 31 27 24 22 20 18 16 13 11 9 8 7 6 4 2 1 1 2 3 4 5 6 7 7 7 7 7 8 8 7 7 7 7 8 8 8 8 8 8 8 8 9 9 10
14 15 17 19 21 20 18 16 18 20 21 20 20 19 19 18 18 19 21 22 23 24 25 25 25 25 26 25 25 25 23 21 19 20 22 22 20 20 21 21 23 29 32 30 26 24 22 20 18 15 13 10 9 8 8 6 4 2 1 0 1 3 5 6 7 7 7 8 7 8 8 8 7 6 6 7 7 6 7 8 9 8 8 9 9 10 10
14 15 17 19 20 18 16 16 18 21 22 23 22 21 20 18 18 18 18 18 19 21 23 24 24 23 23 23 23 23 22 20 19 20 20 20 20 20 20 21 24 31 34 31 26 23 22 19 17 14 11 10 9 9 8 7 5 3 2 1 1 3 5 7 8 8 8 9 9 9 9 8 6 5 4 5 5 6 6 7 7 7 8 8 8 9 10
14 15 16 18 18 17 15 17 19 21 23 23 22 21 19 18 17 16 16 16 18 20 22 23 22 22 20 19 20 20 20 20 20 20 20 22 24 24 23 24 29 34 34 29 25 23 21 18 15 13 11 11 11 10 9 7 5 4 3 1 1 3 5 7 8 9 10 10 10 11 11 9 5 3 3 5 6 6 7 8 9 9 9 9 8 9 9
14 15 16 16 16 15 15 17 19 21 22 22 22 21 18 16 15 15 15 16 17 18 19 20 20 20 19 18 18 19 20 20 20 19 19 22 25 24 23 26 32 35 33 28 24 23 21 17 14 12 12 11 11 10 8 7 6 4 3 2 0 2 4 6 7 8 9 10 11 12 12 10 6 4 4 7 9 10 11 12 12 11 11 10 10 10 10
13 14 15 15 14 14 16 19 20 20 19 19 19 20 17 13 12 13 14 15 16 17 17 17 17 17 17 18 19 19 19 19 19 19 19 22 24 24 25 30 34 33 29 25 23 22 20 16 14 13 12 11 10 9 8 7 6 5 4 3 2 1 2 4 5 6 8 9 10 10 12 12 9 6 6 8 11 12 13 14 13 12 12 13 13 13 12
13 14 14 13 13 14 17 18 19 19 19 17 16 15 14 11 10 11 12 13 15 15 15 15 15 16 17 18 18 18 18 18 20 21 22 23 25 26 30 33 32 29 26 24 22 20 17 14 13 12 11 10 9 8 7 6 5 5 4 4 4 4 3 3 3 4 6 7 9 9 10 11 10 8 7 8 11 13 14 14 14 14 14 14 15 15 15
13 13 12 12 13 15 17 17 17 19 20 19 15 13 12 10 9 9 9 10 12 14 14 14 14 15 15 16 16 16 16 16 17 19 21 23 26 29 31 31 27 25 25 25 22 19 16 13 12 11 11 9 8 8 7 6 5 5 4 4 5 5 5 5 5 5 6 7 9 10 10 10 10 10 10 11 12 13 13 13 14 14 14 15 15 15 16
11 11 10 11 14 16 17 17 17 18 19 18 15 11 9 7 6 6 7 8 10 11 12 12 12 12 12 13 14 15 15 15 16 19 20 23 27 30 31 28 26 26 26 24 20 17 16 14 12 11 10 9 8 7 6 5 5 4 4 4 4 5 6 6 6 6 6 7 9 10 11 11 12 12 13 14 14 14 14 14 14 14 14 15 16 16 17
9 9 10 12 15 19 21 22 20 19 20 18 15 10 7 5 6 6 6 6 7 8 9 9 8 9 10 12 13 13 13 14 16 18 20 24 28 29 28 27 27 26 24 20 17 16 15 14 12 11 10 8 7 6 5 4 4 4 4 4 5 6 7 7 7 7 7 8 10 11 11 12 13 14 15 15 14 14 15 15 14 14 15 16 17 18 19
7 7 8 10 13 16 21 25 27 27 26 23 20 16 13 9 7 6 4 2 2 4 4 4 5 7 8 9 10 10 11 13 17 21 24 26 27 26 25 26 26 24 20 18 16 15 14 12 11 10 8 7 5 4 4 4 4 4 5 6 7 8 8 9 9 8 9 10 11 11 12 12 14 15 14 12 11 12 12 12 12 13 15 17 17 18 18
Wind_Direction
63 45 57 84 85 72 65 77 107 128 147 185 190 174 139 151 186 220 164 167 174 171 171 169 157 150 147 145 138 127 118 110 109 106 98 103 122 163 190 191 195 199 195 183 177 175 176 181 187 198 205 208 212 217 221 225 228 230 233 235 236 236 237 239 240 239 237 235 234 233 233 234 237 238 237 237 237 237 238 238 238 239 240 244 248 249 247
62 56 66 78 83 87 76 62 57 67 91 115 118 114 109 98 5 91 151 159 159 159 167 167 159 155 150 143 137 130 126 119 114 110 101 94 86 82 102 135 162 179 182 177 174 175 177 181 185 192 199 202 206 210 215 220 222 224 227 231 233 234 236 240 242 242 241 240 239 239 239 238 238 239 241 241 241 241 240 239 239 239 239 240 244 248 250
59 48 62 74 73 87 84 66 46 42 63 90 99 120 124 76 58 112 137 141 140 158 164 160 155 151 145 144 144 139 136 129 121 112 101 95 87 83 94 105 120 145 160 163 165 167 171 180 188 194 198 201 204 205 208 211 214 215 218 221 223 227 234 240 243 245 245 244 243 243 244 243 240 240 243 246 247 245 242 240 239 239 239 239 240 244 249
62 32 47 69 54 97 88 56 21 4 6 81 89 95 130 142 129 132 139 146 155 163 160 152 148 148 148 147 144 142 139 132 127 118 105 100 96 94 100 102 104 118 135 143 148 151 157 168 176 182 193 201 201 199 202 206 207 209 212 216 219 226 235 240 243 246 247 247 248 247 247 246 244 243 245 249 250 247 244 243 243 242 240 239 238 241 245
64 4 5 65 149 164 92 21 348 327 317 70 91 63 54 112 140 144 150 147 145 152 152 147 147 150 149 145 143 144 140 132 127 121 113 108 104 104 106 102 97 103 111 117 122 125 132 141 141 142 162 178 176 175 187 200 208 211 213 217 217 222 231 238 242 244 244 244 245 244 244 245 244 244 246 247 245 242 242 245 246 246 245 244 243 244 247
25 341 343 153 169 146 43 354 334 295 278 312 102 85 61 60 103 109 99 123 137 146 147 145 146 146 144 144 145 143 141 135 127 122 119 116 114 112 110 105 101 101 103 106 109 111 113 117 120 120 129 140 142 144 157 177 191 197 199 201 200 206 215 221 222 223 228 234 236 235 237 237 237 238 239 240 238 237 240 244 246 246 246 246 246 247 250
9 347 358 125 122 81 35 8 15 2 212 102 96 87 57 33 95 118 121 135 142 143 144 142 136 131 132 135 136 139 143 140 134 129 124 121 121 119 112 107 103 101 101 103 104 105 106 105 106 107 109 115 121 126 133 143 151 157 165 174 177 183 190 191 187 185 189 201 209 210 217 224 227 228 228 230 234 235 238 241 244 246 245 245 244 245 246
136 121 62 110 99 93 159 19 26 29 81 93 92 88 54 19 115 134 133 142 144 142 143 139 131 129 128 123 127 142 145 141 137 134 131 129 127 121 114 110 107 103 101 100 99 101 102 101 99 98 98 102 108 113 117 121 126 130 136 142 143 143 145 148 159 168 170 173 174 176 186 197 205 213 218 225 232 237 241 243 244 245 244 243 244 244 244
128 134 123 123 189 134 134 39 14 354 316 330 318 87 74 16 225 147 140 145 146 143 141 137 132 133 129 116 119 145 147 142 138 135 134 134 130 123 118 116 113 109 106 102 101 101 100 99 96 96 97 97 98 101 103 103 106 111 112 112 110 107 107 113 123 134 141 152 165 173 187 200 207 218 230 226 224 235 242 239 236 238 243 246 247 247 248
330 140 124 117 144 121 85 16 1 328 271 269 277 255 113 66 178 157 149 149 148 144 141 140 139 138 136 135 144 154 151 146 140 136 136 135 131 127 126 123 118 116 113 110 109 106 102 99 96 95 98 97 97 103 103 100 102 104 102 103 106 106 104 104 105 101 95 92 88 79 72 73 136 193 219 232 228 245 248 239 232 233 240 248 251 251 254
192 182 124 123 135 107 58 295 327 335 307 251 243 237 104 128 169 163 155 152 150 147 146 146 146 140 126 137 163 165 158 152 146 142 139 137 135 133 131 128 125 122 119 117 114 109 104 103 102 103 105 104 104 108 107 104 110 110 104 103 107 108 106 102 97 89 80 75 72 73 73 72 77 89 95 93 86 48 246 240 235 226 224 236 246 251 259
133 62 95 121 104 63 49 298 322 327 322 184 191 292 46 148 173 169 159 153 149 147 147 148 150 145 136 165 178 174 164 158 156 152 146 143 142 138 135 132 127 122 118 115 112 108 103 103 106 108 110 111 112 112 110 109 116 118 114 113 113 111 108 106 102 97 91 85 80 81 84 83 82 83 82 82 85 96 151 196 197 163 148 201 242 260 272
89 46 127 128 68 43 333 319 325 322 304 194 163 6 36 162 172 172 163 156 152 151 154 158 163 163 161 168 173 171 167 163 162 159 155 151 148 144 140 136 129 123 119 112 109 107 101 99 103 102 101 107 112 116 121 129 136 135 129 127 126 120 113 110 106 106 107 106 108 111 111 111 109 105 100 98 101 108 88 43 47 62 72 62 6 338 316
81 93 115 119 102 51 340 328 327 325 297 189 26 351 246 177 172 171 167 163 159 158 160 167 174 170 165 167 168 168 169 167 164 162 161 158 155 151 146 141 136 128 120 113 107 105 100 98 99 94 93 99 104 108 118 132 143 147 143 144 148 147 143 139 126 117 115 118 129 138 141 144 150 149 144 143 156 183 233 347 357 12 22 17 5 349 334
110 123 115 132 140 25 350 341 340 356 352 301 334 336 203 173 170 172 170 167 166 165 165 171 174 164 161 165 167 168 169 169 167 166 166 164 160 157 153 149 143 130 119 115 108 102 101 99 97 95 91 90 92 98 108 117 133 146 151 163 173 177 181 184 177 165 149 138 142 152 157 165 175 175 168 167 171 173 169 153 23 23 25 15 350 315 300
336 87 90 59 15 341 347 353 6 353 335 315 324 349 155 165 173 176 173 170 172 171 169 172 174 166 162 165 168 170 171 172 172 170 170 170 166 163 161 155 147 135 121 112 100 94 94 91 89 91 89 86 91 100 108 123 153 170 167 179 206 217 218 217 203 194 188 180 173 175 177 182 190 193 193 195 199 203 207 216 247 21 39 9 314 284 284
359 21 35 18 357 345 353 13 25 357 347 338 344 52 148 168 178 180 178 177 178 178 176 173 171 168 167 169 172 174 174 175 176 175 174 175 171 167 164 157 147 135 117 99 86 81 79 73 64 56 50 51 55 66 89 214 228 221 209 200 208 223 229 234 233 224 216 215 211 208 207 209 215 226 239 251 262 271 282 288 294 302 307 307 306 297 297
276 31 32 14 8 14 21 37 39 22 19 20 20 64 150 173 182 184 184 183 182 184 182 174 166 167 170 172 175 177 177 178 179 179 177 177 176 172 168 160 148 132 111 88 74 69 64 58 47 35 26 19 14 16 4 271 246 234 221 204 196 203 211 218 226 229 234 239 240 238 234 232 234 243 258 274 286 297 305 307 308 307 304 303 303 299 295
185 85 53 32 27 30 31 43 48 36 33 38 40 64 153 179 187 188 189 187 186 187 185 180 175 174 176 178 178 179 180 181 182 183 182 180 180 178 173 166 154 138 114 90 77 67 55 47 37 27 22 16 10 9 6 356 320 254 230 212 200 196 196 200 205 209 217 228 239 248 252 251 249 251 259 272 286 300 308 312 314 312 307 302 297 294 293
63 87 71 55 57 48 41 43 44 37 35 43 50 64 124 175 187 191 193 192 191 190 189 189 188 184 183 185 184 182 183 184 185 186 187 185 183 182 180 175 165 147 121 100 82 64 52 45 36 27 21 16 15 15 13 11 10 9 228 213 211 203 196 196 198 202 210 220 226 235 244 247 249 252 257 264 273 284 292 300 308 310 311 309 302 297 300
93 101 129 191 105 64 47 44 44 37 34 41 51 64 91 147 172 179 186 193 197 197 194 192 194 193 193 194 193 189 188 188 189 189 191 190 187 186 185 185 182 172 151 119 78 56 46 38 34 33 28 21 20 20 18 16 14 16 19 204 202 197 198 201 204 208 217 226 232 236 240 244 248 251 253 254 256 263 271 277 283 292 302 307 309 312 315
121 89 79 101 116 80 48 45 48 45 38 38 50 67 87 131 163 172 178 186 195 199 198 197 199 199 198 199 200 198 194 192 193 194 195 194 192 191 193 196 197 193 182 150 82 51 38 33 37 40 36 32 29 24 21 22 20 16 11 2 346 214 210 219 224 228 230 233 237 238 237 241 246 251 256 254 244 243 253 263 271 280 287 290 294 303 313
79 84 100 92 88 89 73 62 60 56 46 39 44 55 68 107 156 174 184 190 194 198 202 205 208 209 207 206 205 203 199 196 198 199 197 196 197 198 202 206 207 201 188 164 98 39 28 41 53 49 44 43 39 32 27 25 23 23 17 2 348 341 333 320 300 287 275 261 255 248 241 235 228 220 222 233 236 237 242 253 266 274 277 280 283 290 301
85 98 107 99 94 97 91 77 69 63 56 51 51 49 46 47 76 155 190 203 208 210 211 211 213 217 220 215 209 205 204 202 202 201 200 201 203 206 209 214 213 206 193 174 136 12 18 57 60 51 44 41 36 32 30 26 23 25 23 6 350 344 339 333 327 314 297 285 277 270 266 264 242 213 203 209 225 236 240 246 256 264 268 273 278 285 293
104 103 101 98 96 94 88 79 72 66 61 59 61 61 56 45 33 18 342 270 244 235 227 220 217 217 218 214 211 210 211 210 208 205 202 203 206 211 215 218 215 208 198 197 228 256 245 98 60 46 36 28 25 25 24 23 20 19 16 6 351 345 342 336 330 320 305 295 288 279 278 283 285 263 218 208 219 230 236 244 254 260 264 268 273 279 284
107 104 100 96 90 81 78 81 75 62 57 58 59 62 65 61 48 28 4 340 310 279 254 237 227 220 215 214 214 215 215 213 209 205 204 206 210 214 219 220 215 208 206 217 233 239 236 235 353 25 14 10 12 13 14 16 15 13 10 2 349 344 343 335 322 309 294 288 286 283 283 281 283 294 294 261 239 232 231 241 253 259 265 269 270 269 269
110 104 100 99 89 76 75 85 79 61 55 55 50 49 51 47 44 38 25 6 337 313 287 260 244 232 223 219 219 219 216 211 206 205 207 211 215 220 224 223 216 210 213 223 230 232 237 245 263 305 331 345 354 359 4 7 8 5 2 356 346 340 333 325 316 304 293 289 287 287 287 285 283 284 282 279 272 253 242 244 249 252 258 265 266 265 264
123 115 112 104 99 96 91 86 78 57 35 23 19 18 13 4 352 341 343 347 265 236 254 263 259 250 241 234 227 220 214 209 207 209 213 217 221 225 226 222 217 215 217 221 226 230 233 238 249 269 293 313 329 342 353 359 360 358 354 346 337 328 321 316 310 303 298 294 288 287 287 288 287 282 276 271 267 261 261 261 257 257 260 260 260 263 266
113 109 102 87 95 113 115 94 54 359 346 344 341 335 331 329 325 320 318 306 252 214 209 213 222 233 241 243 238 228 218 212 210 213 217 221 225 228 227 224 220 218 218 223 229 231 230 230 236 250 267 288 308 324 337 347 351 350 343 333 320 311 307 303 301 300 297 292 289 288 287 284 281 275 269 265 262 262 265 263 260 262 268 269 266 265 267
108 102 97 87 95 119 296 303 300 305 312 315 316 316 315 314 315 316 312 304 286 255 235 228 222 217 217 224 231 231 228 224 222 223 225 226 227 228 228 224 219 215 218 227 233 232 228 226 229 236 249 269 290 309 324 335 340 340 333 320 307 300 297 294 293 293 290 288 288 288 285 283 280 273 265 262 262 261 259 258 258 260 266 271 271 268 267
102 79 56 30 1 335 321 310 306 306 305 303 305 306 305 304 304 305 304 303 297 285 268 256 246 237 233 232 231 230 233 237 238 237 235 234 233 232 230 227 225 226 231 236 237 232 226 223 224 229 239 255 273 293 311 323 328 327 321 310 301 297 296 294 291 288 283 282 282 280 279 281 281 275 266 261 258 256 254 255 259 260 262 267 269 267 272
76 44 7 349 344 333 319 311 305 302 300 302 305 306 305 303 300 298 299 299 298 295 289 281 271 260 251 248 246 243 242 244 246 247 245 241 238 237 235 233 233 236 241 243 240 231 224 221 223 227 234 244 259 279 298 311 317 315 310 302 298 298 298 295 291 288 284 282 280 278 277 277 276 273 268 258 252 251 249 251 254 254 259 267 273 273 274
38 26 351 339 337 330 319 312 305 298 294 294 294 295 299 301 300 298 299 298 297 296 293 289 285 277 268 261 258 254 251 248 246 244 243 241 240 240 239 237 235 235 238 241 238 229 223 223 224 227 232 240 250 264 283 299 306 304 298 295 297 300 301 301 299 297 294 287 282 279 275 271 270 268 263 254 248 243 240 245 250 255 265 272 274 274 272
359 354 331 325 322 318 313 309 305 301 297 293 288 285 285 286 287 289 291 292 293 293 290 287 285 281 276 271 266 262 257 252 247 245 243 243 243 242 241 239 236 233 233 233 229 223 220 220 221 224 229 235 241 250 264 280 287 286 284 287 293 297 301 304 306 307 304 295 289 285 277 271 269 262 246 247 251 250 251 257 261 268 274 272 270 271 275
319 313 310 308 306 305 304 302 301 299 297 295 292 289 285 283 281 280 281 283 285 286 286 285 285 282 278 274 271 267 263 260 256 253 250 248 248 248 246 242 237 232 228 225 221 218 217 216 217 221 225 226 230 239 248 256 264 269 271 276 282 287 295 302 307 310 310 305 300 297 282 265 259 253 249 248 251 256 262 266 268 272 273 272 273 278 281
296 297 299 298 298 298 297 294 294 294 292 291 290 287 286 285 283 280 279 278 276 275 277 279 280 279 278 277 274 271 267 263 260 258 254 251 249 250 250 246 239 231 225 218 212 212 213 213 214 217 218 219 226 234 239 247 255 258 260 264 270 279 289 297 304 310 313 310 300 271 257 267 269 261 253 248 249 259 267 269 272 275 276 275 279 281 280
292 293 295 296 296 297 295 293 292 291 288 287 286 284 283 283 282 281 280 277 273 271 272 272 272 272 273 274 273 270 268 266 263 259 255 250 246 246 247 245 239 230 222 214 210 209 211 210 211 212 212 217 232 241 244 251 258 256 254 258 268 278 288 297 304 310 312 309 300 283 264 269 271 262 257 260 264 272 278 279 278 281 283 283 283 282 281
294 296 299 301 300 300 298 297 295 292 289 287 285 283 281 280 278 277 276 274 272 271 270 268 267 267 266 267 267 267 267 268 267 265 260 252 245 242 242 241 236 229 222 216 212 210 208 207 208 211 212 219 233 243 250 258 263 261 259 266 278 289 298 306 312 314 314 312 311 308 299 286 278 272 274 281 282 282 285 289 290 289 289 288 288 288 287
298 303 307 308 308 307 306 303 299 296 293 291 288 285 283 280 277 274 272 270 270 269 268 266 265 264 262 262 262 264 265 266 266 266 266 258 248 243 243 243 240 234 226 219 213 209 208 207 208 210 212 216 225 237 249 256 253 249 256 281 304 316 323 327 328 328 327 326 325 325 323 315 306 297 288 288 291 292 295 297 298 297 295 295 295 295 293
309 313 314 314 313 312 309 306 303 300 296 293 290 287 285 283 279 275 271 268 267 266 265 264 263 262 260 259 259 260 263 264 263 263 264 261 253 246 242 241 238 231 223 215 208 207 210 210 207 205 207 211 220 233 243 241 231 232 266 312 335 342 342 342 341 340 340 338 337 336 336 332 327 322 314 300 299 300 299 298 298 297 295 294 295 296 297
316 317 317 317 316 315 312 309 306 302 298 295 292 289 287 284 279 274 271 269 268 266 262 260 259 259 259 259 258 259 261 263 263 260 258 254 248 240 234 232 230 222 213 207 205 207 207 204 201 201 204 208 215 224 225 216 211 224 277 332 350 356 355 354 355 354 351 348 344 341 339 337 334 333 331 322 315 314 313 310 304 297 293 292 292 294 297
321 322 322 321 320 319 316 311 306 302 300 297 294 291 288 283 277 272 269 267 266 264 261 259 257 256 256 256 256 258 259 260 259 256 251 247 243 237 232 230 225 214 205 202 202 201 198 194 195 198 201 203 208 211 206 201 205 214 234 348 1 8 9 6 5 1 355 350 345 341 338 337 338 340 340 335 330 327 326 324 318 310 305 300 296 294 295
327 328 328 325 324 323 318 312 307 305 303 299 295 291 287 280 274 270 268 266 263 262 260 258 256 255 254 252 251 253 255 254 252 250 246 243 239 235 234 234 224 208 200 197 195 192 192 193 193 193 196 200 203 202 199 198 201 201 190 153 18 21 19 14 11 7 2 358 354 349 345 344 345 347 346 341 336 331 329 329 326 322 317 312 306 302 301
334 334 329 326 327 327 322 316 315 313 310 305 300 292 284 278 273 271 269 268 266 263 260 257 256 256 254 250 247 249 250 249 248 246 241 233 226 223 226 228 218 203 196 194 192 190 191 191 188 186 192 199 200 200 202 201 200 197 191 153 40 30 25 21 18 15 12 8 4 360 356 353 352 350 346 340 336 332 331 330 329 326 323 321 316 311 309
339 334 327 327 330 330 325 323 323 322 318 314 308 297 284 276 272 271 269 268 268 266 262 258 256 254 252 248 247 248 248 250 251 247 234 223 219 217 215 213 208 201 196 193 191 187 185 184 184 187 195 200 199 201 202 199 195 196 195 170 43 28 27 26 24 21 19 15 10 8 7 4 358 349 346 343 340 338 335 335 334 332 330 328 325 321 319
339 335 333 333 334 331 329 329 326 321 318 316 312 305 294 279 269 268 269 268 266 266 264 259 256 254 251 247 246 248 249 251 252 248 235 226 224 220 210 205 203 199 194 190 187 183 181 183 188 194 198 199 199 200 199 196 197 203 207 212 300 14 24 25 22 21 19 16 13 14 14 12 5 354 353 355 354 352 349 347 343 339 334 332 330 329 327
345 345 344 341 336 333 333 332 328 323 318 313 306 303 300 288 271 268 271 268 264 262 261 257 253 251 248 245 245 247 247 243 240 237 231 228 227 220 206 198 196 194 189 186 184 183 182 186 191 195 196 196 197 197 198 200 204 209 216 227 244 281 349 7 12 17 17 13 10 12 14 12 8 4 4 5 4 2 359 356 353 347 341 338 335 333 331
356 358 355 350 346 342 339 336 333 331 328 321 310 302 300 292 276 269 272 270 265 261 258 254 249 247 245 244 245 246 244 240 236 231 226 224 222 212 198 189 187 186 183 179 177 176 178 183 188 190 189 189 190 193 199 206 211 218 227 235 243 251 268 299 327 348 358 359 359 1 4 5 2 356 353 356 359 359 358 357 356 353 349 346 342 338 334
8 9 6 3 1 355 346 341 338 336 334 332 324 311 302 294 284 279 279 276 268 263 261 259 255 249 244 242 240 237 236 237 237 234 228 221 213 200 187 180 177 177 174 170 167 167 170 175 180 181 181 181 185 191 199 209 218 227 237 242 245 252 263 277 293 311 328 341 344 344 344 345 344 340 337 338 340 340 341 342 343 343 342 341 340 338 337
20 22 18 19 19 14 6 358 353 349 349 349 343 328 313 309 312 310 300 287 277 271 266 264 259 250 240 233 228 227 228 232 234 230 221 208 196 186 179 175 173 171 167 164 163 165 165 166 167 170 173 176 181 188 198 210 222 232 246 253 255 264 276 284 291 304 319 325 324 322 322 324 326 327 329 330 328 325 324 325 328 329 330 330 330 331 331
30 35 37 40 40 36 32 29 26 19 13 11 9 5 355 343 337 330 314 294 282 273 264 256 247 234 223 216 213 215 222 224 218 205 189 177 173 173 171 168 166 164 162 161 164 164 162 160 160 162 165 170 178 188 201 215 224 237 256 269 272 277 284 287 291 299 306 307 306 308 311 315 317 320 323 325 325 322 321 322 323 323 322 321 322 322 322
37 48 55 58 54 45 40 41 42 41 37 33 34 37 38 28 12 11 17 357 299 271 241 195 152 149 164 173 174 179 184 182 174 167 161 159 161 163 161 158 158 158 159 159 159 157 155 155 157 158 162 169 179 193 211 228 242 254 267 274 276 277 279 282 284 288 292 294 299 304 308 310 312 315 317 316 314 314 316 318 319 319 318 317 316 316 316